FW2343 Weather Reports


Display with metric or nautical units.
time (UTC)temp
F
wind
direction
speed
MPH
gust
MPH
rain 1hr
in
rain 24hr
in
rain mn
in
humidity
%
barometer
mb
20260906194207 83 0 0.0 2.0 0.00 0.00 0.00 44 1021.1
20260906193212 84 177 0.0 2.0 0.00 0.00 0.00 44 1021.0
20260906192706 84 115 0.0 2.0 0.00 0.00 0.00 43 1020.9
20260906192208 84 278 0.0 3.0 0.00 0.00 0.00 42 1020.9
20260906191708 85 352 0.0 5.0 0.00 0.00 0.00 42 1020.9
20260906191211 85 358 0.0 5.0 0.00 0.00 0.00 42 1020.9
20260906190706 85 282 0.0 5.0 0.00 0.00 0.00 42 1020.6
20260906190241 85 281 1.0 6.0 0.00 0.00 0.00 42 1020.6
20260906185705 85 0 0.0 9.0 0.00 0.00 0.00 41 1020.5
20260906184712 86 4 2.0 9.0 0.00 0.00 0.00 41 1020.3
20260906184213 86 11 4.0 10.0 0.00 0.00 0.00 40 1020.0
20260906183711 86 1 5.0 11.0 0.00 0.00 0.00 40 1019.8
20260906183226 86 8 6.0 13.0 0.00 0.00 0.00 40 1019.6
20260906182718 87 33 6.0 13.0 0.00 0.00 0.00 39 1019.7
20260906182218 87 2 5.0 13.0 0.00 0.00 0.00 39 1019.5
20260906181718 87 357 7.0 11.0 0.00 0.00 0.00 39 1019.5
20260906181214 88 2 6.0 12.0 0.00 0.00 0.00 39 1019.5
20260906180717 88 15 7.0 14.0 0.00 0.00 0.00 38 1019.4
20260906180238 88 23 5.0 14.0 0.00 0.00 0.00 38 1019.3
20260906175713 89 350 7.0 14.0 0.00 0.00 0.00 38 1019.3
20260906175217 89 14 7.0 17.0 0.00 0.00 0.00 37 1019.3
20260906173717 89 354 8.0 14.0 0.00 0.00 0.00 37 1019.1
20260906173208 89 11 7.0 17.0 0.00 0.00 0.00 37 1019.0
20260906172719 90 33 6.0 17.0 0.00 0.00 0.00 36 1018.9
20260906172217 90 2 8.0 17.0 0.00 0.00 0.00 36 1018.8
20260906171711 90 352 7.0 15.0 0.00 0.00 0.00 36 1018.7
20260906171215 90 4 7.0 16.0 0.00 0.00 0.00 35 1018.7
20260906170724 91 36 6.0 16.0 0.00 0.00 0.00 35 1018.6
20260906170205 91 11 8.0 16.0 0.00 0.00 0.00 35 1018.5
20260906165716 91 2 9.0 15.0 0.00 0.00 0.00 35 1018.4
20260906164718 92 0 6.0 15.0 0.00 0.00 0.00 33 1018.3
20260906163708 93 46 8.0 16.0 0.00 0.00 0.00 32 1018.2
20260906163205 94 36 8.0 16.0 0.00 0.00 0.00 32 1018.2
20260906162717 94 354 10.0 17.0 0.00 0.00 0.00 31 1018.0
20260906162207 94 9 10.0 18.0 0.00 0.00 0.00 31 1017.9
20260906161713 95 8 9.0 18.0 0.00 0.00 0.00 31 1017.9
20260906161208 95 344 11.0 18.0 0.00 0.00 0.00 30 1017.8
20260906160708 96 25 9.0 17.0 0.00 0.00 0.00 29 1017.8
20260906160208 96 5 11.0 17.0 0.00 0.00 0.00 29 1017.8
20260906155708 97 22 10.0 16.0 0.00 0.00 0.00 29 1017.6
20260906155207 98 18 8.0 16.0 0.00 0.00 0.00 28 1017.6
20260906154710 98 9 8.0 16.0 0.00 0.00 0.00 28 1017.7
20260906154214 99 2 8.0 13.0 0.00 0.00 0.00 27 1017.6
20260906153714 99 49 7.0 15.0 0.00 0.00 0.00 27 1017.6
20260906153209 100 37 6.0 15.0 0.00 0.00 0.00 26 1017.6
20260906152737 100 37 5.0 15.0 0.00 0.00 0.00 26 1017.6
20260906152207 100 63 7.0 13.0 0.00 0.00 0.00 25 1017.6
20260906151730 100 70 6.0 13.0 0.00 0.00 0.00 26 1017.6
20260906151206 100 52 6.0 13.0 0.00 0.00 0.00 26 1017.7
20260906150711 101 99 6.0 13.0 0.00 0.00 0.00 25 1017.7
20260906150219 102 42 5.0 13.0 0.00 0.00 0.00 24 1017.7
20260906145711 102 45 7.0 13.0 0.00 0.00 0.00 25 1017.6
20260906145207 101 21 8.0 13.0 0.00 0.00 0.00 24 1017.8
20260906144705 101 61 7.0 16.0 0.00 0.00 0.00 25 1017.8
20260906144209 101 71 5.0 16.0 0.00 0.00 0.00 25 1017.8
20260906143711 102 45 6.0 19.0 0.00 0.00 0.00 25 1017.7
20260906143211 102 7 9.0 19.0 0.00 0.00 0.00 25 1017.8
20260906142710 101 14 7.0 19.0 0.00 0.00 0.00 25 1017.8
20260906142207 101 4 9.0 17.0 0.00 0.00 0.00 26 1017.7
20260906141210 101 9 7.0 14.0 0.00 0.00 0.00 26 1017.7
20260906140214 102 4 5.0 14.0 0.00 0.00 0.00 25 1017.8
20260906135705 101 16 9.0 16.0 0.00 0.00 0.00 25 1017.8
20260906135215 101 50 6.0 16.0 0.00 0.00 0.00 25 1017.9
20260906134706 102 35 6.0 16.0 0.00 0.00 0.00 25 1017.8
20260906134206 102 29 7.0 14.0 0.00 0.00 0.00 25 1017.8
20260906133718 102 74 7.0 16.0 0.00 0.00 0.00 25 1017.9
20260906132708 101 53 8.0 16.0 0.00 0.00 0.00 25 1017.9
20260906132213 101 43 9.0 16.0 0.00 0.00 0.00 25 1018.0
20260906131212 101 53 9.0 16.0 0.00 0.00 0.00 26 1018.0
20260906130707 101 15 9.0 16.0 0.00 0.00 0.00 26 1018.0
20260906130209 101 16 8.0 16.0 0.00 0.00 0.00 27 1018.2
20260906125707 101 52 6.0 16.0 0.00 0.00 0.00 26 1018.2
20260906124709 101 33 8.0 16.0 0.00 0.00 0.00 26 1018.3
20260906124216 101 59 6.0 16.0 0.00 0.00 0.00 26 1018.4
20260906123706 100 21 9.0 16.0 0.00 0.00 0.00 27 1018.4
20260906122718 99 1 9.0 15.0 0.00 0.00 0.00 28 1018.4
20260906122217 99 9 8.0 15.0 0.00 0.00 0.00 28 1018.5
20260906121731 99 2 8.0 15.0 0.00 0.00 0.00 28 1018.5
20260906121212 99 16 9.0 14.0 0.00 0.00 0.00 28 1018.7
20260906120712 98 9 8.0 13.0 0.00 0.00 0.00 28 1018.7
20260906120217 98 352 8.0 13.0 0.00 0.00 0.00 29 1018.7
20260906115707 98 1 8.0 13.0 0.00 0.00 0.00 29 1018.8
20260906114713 98 9 6.0 11.0 0.00 0.00 0.00 30 1018.8
20260906114210 97 358 6.0 11.0 0.00 0.00 0.00 30 1018.9
20260906112215 96 8 3.0 9.0 0.00 0.00 0.00 31 1019.2
20260906111212 96 327 4.0 9.0 0.00 0.00 0.00 32 1019.2
20260906110708 95 351 2.0 9.0 0.00 0.00 0.00 33 1019.2
20260906110213 94 0 4.0 9.0 0.00 0.00 0.00 33 1019.3
20260906105715 94 9 2.0 9.0 0.00 0.00 0.00 34 1019.4
20260906105208 94 9 4.0 9.0 0.00 0.00 0.00 34 1019.5
20260906104711 94 345 4.0 8.0 0.00 0.00 0.00 35 1019.7
20260906104215 93 337 2.0 10.0 0.00 0.00 0.00 35 1019.7
20260906103704 93 315 2.0 10.0 0.00 0.00 0.00 35 1019.8
20260906103223 93 12 1.0 10.0 0.00 0.00 0.00 35 1019.9
20260906102714 92 326 4.0 8.0 0.00 0.00 0.00 36 1020.1
20260906101705 91 2 1.0 6.0 0.00 0.00 0.00 37 1020.2
20260906100712 91 326 0.0 5.0 0.00 0.00 0.00 37 1020.2
20260906100209 91 32 0.0 6.0 0.00 0.00 0.00 38 1020.3
20260906095215 90 355 0.0 7.0 0.00 0.00 0.00 39 1020.5
20260906094712 89 35 2.0 7.0 0.00 0.00 0.00 41 1020.5
20260906094213 88 358 2.0 6.0 0.00 0.00 0.00 39 1020.7
20260906093708 88 12 2.0 5.0 0.00 0.00 0.00 39 1020.7
20260906093213 88 1 1.0 7.0 0.00 0.00 0.00 41 1020.7
20260906092706 87 15 2.0 7.0 0.00 0.00 0.00 42 1020.8
20260906092245 87 14 1.0 7.0 0.00 0.00 0.00 42 1020.8
20260906091707 86 1 3.0 4.0 0.00 0.00 0.00 42 1020.8
20260906091216 86 25 1.0 5.0 0.00 0.00 0.00 43 1020.8
20260906090709 85 12 2.0 5.0 0.00 0.00 0.00 44 1020.8
20260906090213 85 28 1.0 5.0 0.00 0.00 0.00 45 1020.8
20260906085713 84 39 2.0 5.0 0.00 0.00 0.00 44 1020.9
20260906085205 83 0 1.0 5.0 0.00 0.00 0.00 46 1020.9
20260906084718 83 14 2.0 4.0 0.00 0.00 0.00 46 1020.8
20260906084218 82 16 1.0 0.0 0.00 0.00 0.00 46 1020.8
20260906083714 82 0 0.0 0.0 0.00 0.00 0.00 47 1020.8
20260906083205 81 0 0.0 0.0 0.00 0.00 0.00 47 1020.8
20260906082709 80 0 0.0 0.0 0.00 0.00 0.00 48 1020.7
20260906082219 79 0 0.0 0.0 0.00 0.00 0.00 49 1020.8
20260906081205 78 0 0.0 0.0 0.00 0.00 0.00 49 1020.8
20260906080707 78 0 0.0 0.0 0.00 0.00 0.00 49 1020.8
20260906080205 78 0 0.0 0.0 0.00 0.00 0.00 51 1020.8
20260906075718 77 0 0.0 0.0 0.00 0.00 0.00 54 1020.7
20260906075207 76 0 0.0 0.0 0.00 0.00 0.00 55 1020.7
20260906074711 75 0 0.0 0.0 0.00 0.00 0.00 55 1020.8
20260906074213 74 0 0.0 0.0 0.00 0.00 0.00 58 1020.7
20260906073708 73 0 0.0 0.0 0.00 0.00 0.00 59 1020.8
20260906073209 72 0 0.0 0.0 0.00 0.00 0.00 59 1020.7
20260906072718 72 0 0.0 0.0 0.00 0.00 0.00 60 1020.8
20260906072229 71 0 0.0 0.0 0.00 0.00 0.00 61 1020.8
20260906071717 71 0 0.0 2.0 0.00 0.00 0.00 62 1020.8
20260906070712 69 0 0.0 2.0 0.00 0.00 0.00 64 1020.8
20260906065711 69 208 0.0 0.0 0.00 0.00 0.00 65 1020.8
20260906064711 68 0 0.0 2.0 0.00 0.00 0.00 66 1020.8
20260906063705 67 237 0.0 0.0 0.00 0.00 0.00 67 1020.8
20260906063211 66 0 0.0 0.0 0.00 0.00 0.00 68 1020.8
20260906062711 66 0 0.0 0.0 0.00 0.00 0.00 68 1020.6
20260906061711 66 0 0.0 1.0 0.00 0.00 0.00 69 1020.7
20260906061205 65 0 0.0 2.0 0.00 0.00 0.00 69 1020.6
20260906060217 65 0 0.0 2.0 0.00 0.00 0.00 70 1020.6
20260906055719 65 247 0.0 1.0 0.00 0.00 0.00 70 1020.5
20260906055219 64 241 0.0 0.0 0.00 0.00 0.00 71 1020.5
20260906054712 64 0 0.0 0.0 0.00 0.00 0.00 71 1020.4
20260906053710 64 0 0.0 0.0 0.00 0.00 0.00 72 1020.4
20260906052709 64 0 0.0 0.0 0.00 0.00 0.00 71 1020.3
20260906052215 64 0 0.0 0.0 0.00 0.00 0.00 71 1020.3
20260906051715 64 0 0.0 0.0 0.00 0.00 0.00 70 1020.3
20260906051214 64 0 0.0 0.0 0.00 0.00 0.00 70 1020.2
20260906050717 64 0 0.0 0.0 0.00 0.00 0.00 70 1020.3
20260906050212 65 0 0.0 0.0 0.00 0.00 0.00 70 1020.2
20260906044711 65 0 0.0 0.0 0.00 0.00 0.00 69 1020.2
20260906044217 65 0 0.0 0.0 0.00 0.00 0.00 69 1020.2
20260906043718 65 0 0.0 0.0 0.00 0.00 0.00 69 1020.1
20260906042709 66 0 0.0 0.0 0.00 0.00 0.00 68 1020.0
20260906042219 66 0 0.0 0.0 0.00 0.00 0.00 68 1020.1
20260906041736 66 0 0.0 0.0 0.00 0.00 0.00 67 1020.1
20260906041210 66 0 0.0 0.0 0.00 0.00 0.00 67 1020.1
20260906040708 66 0 0.0 0.0 0.00 0.00 0.00 67 1020.2
20260906040207 66 8 0.0 0.0 0.00 0.00 0.00 67 1020.1
20260906035713 66 0 0.0 0.0 0.00 0.00 0.00 67 1020.2
20260906035206 66 0 0.0 0.0 0.00 0.00 0.00 67 1020.1
20260906034710 66 0 0.0 0.0 0.00 0.00 0.00 67 1020.2
20260906034216 66 0 0.0 0.0 0.00 0.00 0.00 67 1020.2
20260906033209 66 0 0.0 0.0 0.00 0.00 0.00 67 1020.3
20260906032715 66 0 0.0 0.0 0.00 0.00 0.00 67 1020.3
20260906032218 66 0 0.0 0.0 0.00 0.00 0.00 67 1020.2
20260906031716 66 0 0.0 0.0 0.00 0.00 0.00 67 1020.2
20260906031217 66 0 0.0 0.0 0.00 0.00 0.00 67 1020.3
20260906030716 66 0 0.0 0.0 0.00 0.00 0.00 67 1020.2
20260906030206 66 0 0.0 0.0 0.00 0.00 0.00 68 1020.2
20260906025713 66 0 0.0 0.0 0.00 0.00 0.00 68 1020.2
20260906025213 66 0 0.0 0.0 0.00 0.00 0.00 68 1020.3
20260906024718 66 0 0.0 0.0 0.00 0.00 0.00 69 1020.3
20260906024213 66 0 0.0 0.0 0.00 0.00 0.00 69 1020.3
20260906023707 66 0 0.0 0.0 0.00 0.00 0.00 69 1020.3
20260906023213 66 0 0.0 0.0 0.00 0.00 0.00 68 1020.2
20260906022209 66 0 0.0 1.0 0.00 0.00 0.00 68 1020.3
20260906021714 66 0 0.0 1.0 0.00 0.00 0.00 68 1020.2
20260906021210 66 0 0.0 1.0 0.00 0.00 0.00 68 1020.2
20260906020730 67 1 0.0 0.0 0.00 0.00 0.00 67 1020.3
20260906015711 67 0 0.0 0.0 0.00 0.00 0.00 66 1020.2
20260906015207 67 0 0.0 0.0 0.00 0.00 0.00 65 1020.2
20260906014713 67 0 0.0 0.0 0.00 0.00 0.00 65 1020.3
20260906014207 67 0 0.0 0.0 0.00 0.00 0.00 66 1020.3
20260906013706 67 0 0.0 0.0 0.00 0.00 0.00 65 1020.2
20260906013214 67 0 0.0 0.0 0.00 0.00 0.00 65 1020.3
20260906012719 68 0 0.0 0.0 0.00 0.00 0.00 65 1020.3
20260906012210 68 0 0.0 0.0 0.00 0.00 0.00 65 1020.4
20260906011713 68 0 0.0 0.0 0.00 0.00 0.00 65 1020.5
20260906011207 68 0 0.0 0.0 0.00 0.00 0.00 64 1020.5
20260906010719 68 0 0.0 0.0 0.00 0.00 0.00 64 1020.5
20260906010218 68 0 0.0 0.0 0.00 0.00 0.00 64 1020.5
20260906005711 69 0 0.0 0.0 0.00 0.00 0.00 64 1020.6
20260906005219 69 0 0.0 0.0 0.00 0.00 0.00 64 1020.7
20260906004716 69 0 0.0 0.0 0.00 0.00 0.00 63 1020.8
20260906004215 69 0 0.0 3.0 0.00 0.00 0.00 62 1020.7
20260906003707 69 0 0.0 3.0 0.00 0.00 0.00 62 1020.6
20260906002214 69 202 0.0 4.0 0.00 0.00 0.00 62 1020.7
20260906001710 69 0 0.0 5.0 0.00 0.00 0.00 62 1020.7
20260906001213 69 0 0.0 5.0 0.00 0.00 0.00 62 1020.7
20260906000707 69 11 1.0 5.0 0.00 0.00 0.00 61 1020.8
20260906000212 69 18 3.0 3.0 0.00 0.00 0.00 61 1020.8
20260905235710 70 9 0.0 0.0 0.00 0.00 0.00 61 1020.8
20260905235214 71 0 0.0 0.0 0.00 0.00 0.00 60 1020.8
20260905234716 72 0 0.0 0.0 0.00 0.00 0.00 57 1020.8
20260905234205 72 0 0.0 0.0 0.00 0.00 0.00 57 1020.7
20260905233705 72 0 0.0 0.0 0.00 0.00 0.00 57 1020.8
20260905233215 72 0 0.0 0.0 0.00 0.00 0.00 57 1020.8
20260905232733 72 0 0.0 0.0 0.00 0.00 0.00 57 1020.7
20260905232210 72 0 0.0 0.0 0.00 0.00 0.00 57 1020.9
20260905231719 72 0 0.0 0.0 0.00 0.00 0.00 56 1021.0
20260905231209 73 0 0.0 0.0 0.00 0.00 0.00 56 1021.1
20260905230714 73 0 0.0 0.0 0.00 0.00 0.00 55 1021.1
20260905230217 73 0 0.0 0.0 0.00 0.00 0.00 55 1021.1
20260905225707 73 0 0.0 0.0 0.00 0.00 0.00 54 1021.2
20260905225215 74 0 0.0 0.0 0.00 0.00 0.00 54 1021.1
20260905224718 74 0 0.0 0.0 0.00 0.00 0.00 53 1021.1
20260905224213 74 0 0.0 0.0 0.00 0.00 0.00 53 1021.1
20260905223718 74 0 0.0 0.0 0.00 0.00 0.00 52 1021.1
20260905223216 74 0 0.0 0.0 0.00 0.00 0.00 52 1021.2
20260905222714 74 0 0.0 0.0 0.00 0.00 0.00 52 1021.2
20260905222218 75 0 0.0 0.0 0.00 0.00 0.00 52 1021.1
20260905221710 74 0 0.0 0.0 0.00 0.00 0.00 52 1021.1
20260905221211 75 0 0.0 0.0 0.00 0.00 0.00 52 1021.2
20260905220216 75 0 0.0 0.0 0.00 0.00 0.00 52 1021.1
20260905215205 74 0 0.0 0.0 0.00 0.00 0.00 53 1021.1
20260905214719 74 0 0.0 0.0 0.00 0.00 0.00 53 1021.1
20260905214218 75 0 0.0 0.0 0.00 0.00 0.00 52 1021.1
20260905213709 75 0 0.0 0.0 0.00 0.00 0.00 52 1021.1
20260905213215 75 0 0.0 0.0 0.00 0.00 0.00 52 1021.1
20260905212707 75 0 0.0 0.0 0.00 0.00 0.00 52 1021.1
20260905211218 75 0 0.0 0.0 0.00 0.00 0.00 52 1021.2
20260905210705 75 0 0.0 0.0 0.00 0.00 0.00 52 1021.1
20260905210211 76 0 0.0 0.0 0.00 0.00 0.00 51 1021.2
20260905205709 76 0 0.0 0.0 0.00 0.00 0.00 51 1021.2
20260905205211 76 0 0.0 0.0 0.00 0.00 0.00 51 1021.2
20260905204709 76 0 0.0 0.0 0.00 0.00 0.00 51 1021.2
20260905203706 76 0 0.0 0.0 0.00 0.00 0.00 50 1021.3
20260905203212 76 0 0.0 0.0 0.00 0.00 0.00 50 1021.4
20260905202719 77 0 0.0 0.0 0.00 0.00 0.00 50 1021.5
20260905202214 77 0 0.0 0.0 0.00 0.00 0.00 49 1021.6
20260905201706 77 0 0.0 0.0 0.00 0.00 0.00 49 1021.5
20260905201210 77 0 0.0 0.0 0.00 0.00 0.00 48 1021.5
20260905200709 77 0 0.0 0.0 0.00 0.00 0.00 48 1021.4
20260905195708 78 0 0.0 0.0 0.00 0.00 0.00 48 1021.2
20260905195215 78 0 0.0 0.0 0.00 0.00 0.00 47 1021.2
20260905194718 78 0 0.0 0.0 0.00 0.00 0.00 47 1021.2